Location: Avon
(37.7514°N, 90.2235°W)
Time: 19:04:34
(UTC+00:00)

A-11 Canister half - Pass Details

Date: 11 November 2025
Orbit: 1526 x 1681 km, 47.3° (Epoch: 06 December)

Event Time Altitude Azimuth Distance (km) Brightness Sun altitude
Rises 01:15:30 0° 237° (WSW) 4,884 12.5 -28.3°
Reaches altitude 10° 01:18:40 10° 238° (WSW) 3,881 11.8 -28.9°
Maximum altitude 01:28:37 86° 328° (NNW) 1,614 8.9 -30.9°
Enters shadow 01:31:06 57° 53° (NE) 1,833 9.0 -31.4°
